Weather History for Taos, NM

Change the Weather History Date:

Monday, July 30, 2012

  Actual Average Record
Temperature  
Mean Temperature 72 °F -  
Max Temperature 91 °F 80 °F 91 °F (2012)
Min Temperature 53 °F 49 °F 44 °F (2004)
Cooling Degree Days 7    
Growing Degree Days 22 (Base 50)    
Moisture  
Dew Point 41 °F    
Average Humidity 33    
Maximum Humidity 54    
Minimum Humidity 16    
Precipitation  
Precipitation 0.00 in - - ()
Sea Level Pressure  
Sea Level Pressure 30.33 in    
Wind  
Wind Speed 5 mph (South)    
Max Wind Speed 14 mph    
Max Gust Speed 21 mph    
Visibility 10 miles    
Events Thunderstorm    
Averages and records for this station are not official NWS values.
T = Trace of Precipitation, MM = Missing Value Source: NWS Daily Summary

Daily Weather History Graph

Daily Weather History Graph

Search for Another Location

Airport:

Trip Planner

Search our weather history database for the weather conditions in past years. The results will help you decide how hot, cold, wet, or windy it might be!

Date:

Astronomy

Jul. 30, 2012 Rise Set
Actual Time 6:07 AM MDT 8:09 PM MDT
Civil Twilight 5:39 AM MDT 8:38 PM MDT
Nautical Twilight 5:04 AM MDT 9:12 PM MDT
Astronomical Twilight 4:26 AM MDT 9:50 PM MDT
Moon 6:12 PM MDT (7/30) 3:27 AM MDT (7/30)
Length of Visible Light 14h 58m
Length of Day
14h 01m
Waxing Gibbous, 93% of the Moon is Illuminated
Jul 30
Waxing Gibbous
Aug 1
Full
Aug 9
Last Quarter
Aug 17
New
Aug 24
First Quarter

Hourly Weather History & Observations

Time (MDT) Temp. Dew Point Humidity Pressure Visibility Wind Dir Wind Speed Gust Speed Precip Events Conditions
12:15 AM 66.2 °F 39.2 °F 37% 30.34 in 10.0 mi NE 8.1 mph - N/A   Mostly Cloudy
12:35 AM 66.2 °F 41.0 °F 40% 30.33 in 10.0 mi Calm Calm - N/A   Overcast
12:55 AM 66.2 °F 41.0 °F 40% 30.33 in 10.0 mi ENE 5.8 mph - N/A   Mostly Cloudy
1:15 AM 64.4 °F 39.2 °F 40% 30.33 in 10.0 mi Calm Calm - N/A   Partly Cloudy
1:35 AM 62.6 °F 39.2 °F 42% 30.34 in 10.0 mi NNW 3.5 mph - N/A   Clear
1:55 AM 62.6 °F 39.2 °F 42% 30.34 in 10.0 mi Calm Calm - N/A   Partly Cloudy
2:15 AM 60.8 °F 37.4 °F 42% 30.34 in 10.0 mi Calm Calm - N/A   Clear
2:35 AM 59.0 °F 37.4 °F 45% 30.34 in 10.0 mi Calm Calm - N/A   Partly Cloudy
2:55 AM 57.2 °F 39.2 °F 51% 30.34 in 10.0 mi Calm Calm - N/A   Clear
3:15 AM 59.0 °F 39.2 °F 48% 30.34 in 10.0 mi East 5.8 mph - N/A   Clear
3:35 AM 59.0 °F 39.2 °F 48% 30.34 in 10.0 mi East 6.9 mph - N/A   Clear
3:55 AM 55.4 °F 37.4 °F 51% 30.34 in 10.0 mi Calm Calm - N/A   Clear
4:15 AM 55.4 °F 37.4 °F 51% 30.35 in 10.0 mi North 3.5 mph - N/A   Clear
4:35 AM 57.2 °F 37.4 °F 48% 30.35 in 10.0 mi North 4.6 mph - N/A   Clear
4:55 AM 55.4 °F 37.4 °F 51% 30.35 in 10.0 mi North 5.8 mph - N/A   Clear
5:15 AM 53.6 °F 37.4 °F 54% 30.35 in 10.0 mi North 6.9 mph - N/A   Clear
5:35 AM 53.6 °F 37.4 °F 54% 30.35 in 10.0 mi NNE 8.1 mph - N/A   Clear
5:55 AM 53.6 °F 37.4 °F 54% 30.36 in 10.0 mi North 6.9 mph - N/A   Clear
6:15 AM 53.6 °F 37.4 °F 54% 30.37 in 10.0 mi North 8.1 mph - N/A   Clear
6:35 AM 53.6 °F 37.4 °F 54% 30.37 in 10.0 mi North 8.1 mph - N/A   Clear
6:55 AM 55.4 °F 39.2 °F 54% 30.38 in 10.0 mi North 5.8 mph - N/A   Clear
7:15 AM 59.0 °F 39.2 °F 48% 30.38 in 10.0 mi North 5.8 mph - N/A   Clear
7:35 AM 60.8 °F 39.2 °F 45% 30.39 in 10.0 mi North 3.5 mph - N/A   Clear
7:55 AM 64.4 °F 41.0 °F 42% 30.39 in 10.0 mi Calm Calm - N/A   Clear
8:15 AM 66.2 °F 41.0 °F 40% 30.40 in 10.0 mi NNW 4.6 mph - N/A   Clear
8:35 AM 69.8 °F 42.8 °F 38% 30.40 in 10.0 mi NW 4.6 mph - N/A   Clear
8:55 AM 71.6 °F 42.8 °F 35% 30.40 in 10.0 mi Calm Calm - N/A   Clear
9:15 AM 73.4 °F 42.8 °F 33% 30.39 in 9.0 mi SW 4.6 mph - N/A   Clear
9:35 AM 75.2 °F 42.8 °F 31% 30.39 in 10.0 mi Calm Calm - N/A   Clear
9:55 AM 78.8 °F 42.8 °F 28% 30.39 in 10.0 mi Calm Calm - N/A   Clear
10:15 AM 78.8 °F 42.8 °F 28% 30.39 in 10.0 mi West 6.9 mph - N/A   Clear
10:35 AM 78.8 °F 42.8 °F 28% 30.39 in 10.0 mi SW 4.6 mph - N/A   Clear
10:55 AM 80.6 °F 44.6 °F 28% 30.38 in 10.0 mi Calm Calm - N/A   Clear
11:15 AM 80.6 °F 44.6 °F 28% 30.38 in 10.0 mi WSW 3.5 mph - N/A   Clear
11:35 AM 82.4 °F 44.6 °F 26% 30.38 in 10.0 mi NNW 6.9 mph - N/A   Clear
11:55 AM 84.2 °F 42.8 °F 23% 30.37 in 10.0 mi NW 3.5 mph - N/A   Clear
12:15 PM 84.2 °F 42.8 °F 23% 30.36 in 10.0 mi WSW 9.2 mph - N/A   Scattered Clouds
12:35 PM 84.2 °F 42.8 °F 23% 30.36 in 10.0 mi NNW 4.6 mph - N/A   Clear
12:55 PM 87.8 °F 42.8 °F 21% 30.35 in 10.0 mi SSW 6.9 mph - N/A   Scattered Clouds
1:15 PM 86.0 °F 42.8 °F 22% 30.35 in 10.0 mi West 4.6 mph - N/A   Partly Cloudy
1:35 PM 87.8 °F 41.0 °F 19% 30.34 in 10.0 mi WSW 4.6 mph - N/A   Clear
1:55 PM 87.8 °F 42.8 °F 21% 30.33 in 10.0 mi SSW 3.5 mph - N/A   Clear
2:15 PM 87.8 °F 41.0 °F 19% 30.32 in 10.0 mi NNE 3.5 mph - N/A   Scattered Clouds
2:35 PM 89.6 °F 41.0 °F 18% 30.31 in 10.0 mi SSW 10.4 mph 17.3 mph N/A   Scattered Clouds
2:55 PM 91.4 °F 39.2 °F 16% 30.30 in 9.0 mi WSW 12.7 mph 16.1 mph N/A   Scattered Clouds
3:15 PM 89.6 °F 39.2 °F 17% 30.29 in 10.0 mi WSW 11.5 mph 16.1 mph N/A   Partly Cloudy
3:35 PM 89.6 °F 39.2 °F 17% 30.29 in 10.0 mi SW 12.7 mph 20.7 mph N/A   Clear
3:55 PM 91.4 °F 39.2 °F 16% 30.28 in 10.0 mi NW 10.4 mph - N/A   Clear
4:15 PM 91.4 °F 39.2 °F 16% 30.27 in 10.0 mi West 6.9 mph - N/A   Mostly Cloudy
4:35 PM 91.4 °F 39.2 °F 16% 30.26 in 10.0 mi WSW 12.7 mph 18.4 mph N/A   Mostly Cloudy
4:55 PM 87.8 °F 37.4 °F 17% 30.26 in 10.0 mi SW 8.1 mph - N/A   Partly Cloudy
5:15 PM 87.8 °F 42.8 °F 21% 30.25 in 10.0 mi South 13.8 mph 17.3 mph N/A Thunderstorm Mostly Cloudy
5:35 PM 87.8 °F 41.0 °F 19% 30.25 in 10.0 mi SSE 11.5 mph - N/A   Scattered Clouds
5:55 PM 86.0 °F 41.0 °F 20% 30.25 in 10.0 mi South 12.7 mph - N/A   Clear
6:15 PM 87.8 °F 41.0 °F 19% 30.24 in 10.0 mi South 11.5 mph 18.4 mph N/A   Clear
6:35 PM 84.2 °F 41.0 °F 22% 30.25 in 10.0 mi SSE 13.8 mph - N/A   Clear
6:55 PM 86.0 °F 39.2 °F 19% 30.24 in 10.0 mi SSE 10.4 mph - N/A   Clear
7:15 PM 87.8 °F 41.0 °F 19% 30.24 in 10.0 mi SSE 9.2 mph - N/A   Clear
7:35 PM 84.2 °F 41.0 °F 22% 30.24 in 10.0 mi SSE 13.8 mph - N/A   Clear
7:55 PM 82.4 °F 41.0 °F 23% 30.25 in 10.0 mi SSE 10.4 mph - N/A   Partly Cloudy
8:15 PM 80.6 °F 42.8 °F 26% 30.26 in 10.0 mi SSE 9.2 mph - N/A   Scattered Clouds
8:35 PM 78.8 °F 41.0 °F 26% 30.26 in 10.0 mi SSE 6.9 mph - N/A   Partly Cloudy
8:55 PM 75.2 °F 41.0 °F 29% 30.27 in 10.0 mi SE 8.1 mph - N/A   Clear
9:15 PM 73.4 °F 42.8 °F 33% 30.28 in 10.0 mi ESE 9.2 mph - N/A   Scattered Clouds
9:35 PM 73.4 °F 42.8 °F 33% 30.28 in 10.0 mi ESE 10.4 mph - N/A   Partly Cloudy
9:55 PM 71.6 °F 42.8 °F 35% 30.29 in 10.0 mi ESE 6.9 mph - N/A   Partly Cloudy
10:15 PM 71.6 °F 42.8 °F 35% 30.29 in 10.0 mi East 8.1 mph - N/A   Mostly Cloudy
10:35 PM 71.6 °F 42.8 °F 35% 30.30 in 10.0 mi ESE 8.1 mph - N/A   Mostly Cloudy
10:55 PM 71.6 °F 42.8 °F 35% 30.30 in 10.0 mi ESE 11.5 mph - N/A   Mostly Cloudy
11:15 PM 73.4 °F 41.0 °F 31% 30.30 in 10.0 mi ESE 8.1 mph - N/A   Mostly Cloudy
11:35 PM 71.6 °F 41.0 °F 33% 30.30 in 10.0 mi ESE 6.9 mph - N/A   Mostly Cloudy
11:55 PM 71.6 °F 41.0 °F 33% 30.31 in 10.0 mi ESE 8.1 mph - N/A   Partly Cloudy